Hourly Weather Luhnovo

Today, 17 May, Monday

Time Temperature Precipitation Wind Pressure Humidity
00:00 +13°C° 0 mm 1 mps 746 mmHg 91%
01:00 +12°C° 0 mm 1 mps 746 mmHg 92%
02:00 +12°C° 0 mm 1 mps 747 mmHg 93%
03:00 +13°C° 0 mm 1 mps 747 mmHg 92%
04:00 +13°C° 0 mm 1 mps 747 mmHg 91%
05:00 +14°C° 0 mm 1 mps 747 mmHg 89%
06:00 +16°C° 0 mm 1 mps 747 mmHg 82%
07:00 +17°C° 0 mm 2 mps 747 mmHg 75%
08:00 +19°C° 0 mm 2 mps 747 mmHg 68%
09:00 +21°C° 0 mm 3 mps 747 mmHg 62%
10:00 +22°C° 0 mm 3 mps 747 mmHg 56%
11:00 +24°C° 0 mm 3 mps 747 mmHg 50%
12:00 +25°C° 0 mm 4 mps 747 mmHg 49%
13:00 +25°C° 0 mm 4 mps 746 mmHg 47%
14:00 +26°C° 0 mm 4 mps 746 mmHg 46%
15:00 +25°C° 0 mm 4 mps 745 mmHg 51%
16:00 +25°C° 0 mm 4 mps 745 mmHg 55%
17:00 +25°C° 0 mm 4 mps 745 mmHg 60%
18:00 +22°C° 0.5 mm 4 mps 744 mmHg 70%
19:00 +20°C° 0.5 mm 4 mps 744 mmHg 81%
20:00 +19°C° 0.5 mm 3 mps 744 mmHg 91%
21:00 +18°C° 0.1 mm 3 mps 744 mmHg 92%
22:00 +18°C° 0.1 mm 3 mps 744 mmHg 93%
23:00 +18°C° 0.1 mm 4 mps 743 mmHg 95%

Tomorrow, 18 May, Tuesday

Time Temperature Precipitation Wind Pressure Humidity
00:00 +17°C° 0 mm 3 mps 743 mmHg 95%
01:00 +17°C° 0 mm 3 mps 743 mmHg 95%
02:00 +16°C° 0 mm 3 mps 743 mmHg 95%
03:00 +16°C° 0 mm 3 mps 743 mmHg 94%
04:00 +16°C° 0 mm 3 mps 743 mmHg 92%
05:00 +16°C° 0 mm 3 mps 743 mmHg 91%
06:00 +18°C° 0 mm 4 mps 743 mmHg 83%
07:00 +20°C° 0 mm 4 mps 743 mmHg 75%
08:00 +22°C° 0 mm 4 mps 743 mmHg 67%
09:00 +23°C° 0 mm 5 mps 743 mmHg 60%
10:00 +26°C° 0 mm 5 mps 743 mmHg 52%
11:00 +27°C° 0 mm 5 mps 743 mmHg 44%
12:00 +28°C° 0 mm 5 mps 743 mmHg 43%
13:00 +29°C° 0 mm 5 mps 743 mmHg 43%
14:00 +29°C° 0 mm 5 mps 743 mmHg 42%
15:00 +28°C° 0 mm 5 mps 742 mmHg 44%
16:00 +28°C° 0 mm 5 mps 742 mmHg 46%
17:00 +27°C° 0 mm 5 mps 742 mmHg 47%
18:00 +25°C° 0 mm 4 mps 742 mmHg 53%
19:00 +22°C° 0 mm 4 mps 742 mmHg 58%
20:00 +20°C° 0 mm 4 mps 742 mmHg 64%
21:00 +20°C° 0 mm 4 mps 742 mmHg 65%
22:00 +20°C° 0 mm 4 mps 742 mmHg 67%
23:00 +19°C° 0 mm 4 mps 742 mmHg 68%

Day after tomorrow, 19 May, Wednesday

Time Temperature Precipitation Wind Pressure Humidity
00:00 +18°C° 0 mm 4 mps 742 mmHg 73%
01:00 +18°C° 0 mm 3 mps 742 mmHg 78%
02:00 +17°C° 0 mm 3 mps 742 mmHg 83%
03:00 +17°C° 0 mm 3 mps 742 mmHg 84%
04:00 +17°C° 0 mm 3 mps 742 mmHg 85%
05:00 +17°C° 0 mm 3 mps 742 mmHg 86%
06:00 +19°C° 0 mm 3 mps 742 mmHg 78%
07:00 +21°C° 0 mm 4 mps 742 mmHg 70%
08:00 +23°C° 0 mm 4 mps 742 mmHg 62%
09:00 +25°C° 0 mm 4 mps 742 mmHg 56%
10:00 +26°C° 0 mm 5 mps 743 mmHg 51%
11:00 +27°C° 0 mm 5 mps 743 mmHg 46%
12:00 +26°C° 0 mm 5 mps 743 mmHg 48%
13:00 +25°C° 0 mm 5 mps 743 mmHg 50%
14:00 +25°C° 0 mm 4 mps 743 mmHg 52%
15:00 +25°C° 0 mm 5 mps 743 mmHg 52%
16:00 +25°C° 0 mm 5 mps 743 mmHg 52%
17:00 +25°C° 0 mm 5 mps 742 mmHg 52%
18:00 +22°C° 0.1 mm 4 mps 743 mmHg 62%
19:00 +20°C° 0.1 mm 3 mps 743 mmHg 73%
20:00 +18°C° 0.1 mm 2 mps 743 mmHg 83%
21:00 +17°C° 0.1 mm 2 mps 743 mmHg 86%
22:00 +18°C° 0.1 mm 1 mps 743 mmHg 89%
23:00 +16°C° 0.1 mm 1 mps 743 mmHg 92%

20 May, Thursday

Time Temperature Precipitation Wind Pressure Humidity
00:00 +16°C° 0.3 mm 1 mps 743 mmHg 92%
01:00 +16°C° 0.3 mm 1 mps 743 mmHg 93%
02:00 +16°C° 0.3 mm 1 mps 743 mmHg 94%
03:00 +16°C° 1.3 mm 1 mps 743 mmHg 95%
04:00 +16°C° 1.3 mm 2 mps 743 mmHg 96%
05:00 +16°C° 1.3 mm 2 mps 742 mmHg 97%
06:00 +17°C° 0.3 mm 2 mps 742 mmHg 94%
07:00 +18°C° 0.3 mm 3 mps 742 mmHg 92%
08:00 +19°C° 0.3 mm 3 mps 742 mmHg 90%
09:00 +21°C° 0 mm 4 mps 742 mmHg 79%
10:00 +22°C° 0 mm 5 mps 741 mmHg 69%
11:00 +25°C° 0 mm 5 mps 741 mmHg 58%
12:00 +25°C° 0.5 mm 5 mps 741 mmHg 64%
13:00 +23°C° 0.5 mm 6 mps 740 mmHg 70%
14:00 +23°C° 0.5 mm 6 mps 740 mmHg 75%
15:00 +22°C° 0.6 mm 6 mps 740 mmHg 79%
16:00 +21°C° 0.6 mm 6 mps 740 mmHg 82%
17:00 +20°C° 0.6 mm 6 mps 739 mmHg 86%
18:00 +17°C° 0.1 mm 5 mps 740 mmHg 88%
19:00 +16°C° 0.1 mm 5 mps 740 mmHg 89%
20:00 +15°C° 0.1 mm 4 mps 740 mmHg 91%
21:00 +14°C° 0 mm 4 mps 740 mmHg 92%
22:00 +14°C° 0 mm 4 mps 740 mmHg 94%
23:00 +13°C° 0 mm 3 mps 740 mmHg 95%

21 May, Friday

Time Temperature Precipitation Wind Pressure Humidity
00:00 +13°C° 0 mm 4 mps 740 mmHg 92%
01:00 +13°C° 0 mm 5 mps 740 mmHg 90%
02:00 +13°C° 0 mm 5 mps 740 mmHg 87%
03:00 +13°C° 0 mm 5 mps 740 mmHg 87%
04:00 +12°C° 0 mm 4 mps 740 mmHg 87%
05:00 +12°C° 0 mm 4 mps 740 mmHg 87%
06:00 +12°C° 0.1 mm 4 mps 740 mmHg 87%
07:00 +13°C° 0.1 mm 4 mps 740 mmHg 88%
08:00 +13°C° 0.1 mm 5 mps 740 mmHg 88%
09:00 +13°C° 0.3 mm 5 mps 739 mmHg 89%
10:00 +13°C° 0.3 mm 5 mps 739 mmHg 89%
11:00 +13°C° 0.3 mm 5 mps 739 mmHg 90%
12:00 +14°C° 0.7 mm 5 mps 739 mmHg 87%
13:00 +14°C° 0.7 mm 5 mps 739 mmHg 84%
14:00 +14°C° 0.7 mm 5 mps 738 mmHg 81%
15:00 +13°C° 0.2 mm 5 mps 738 mmHg 79%
16:00 +12°C° 0.2 mm 5 mps 739 mmHg 77%
17:00 +10°C° 0.2 mm 5 mps 739 mmHg 76%
18:00 +10°C° 0.1 mm 4 mps 739 mmHg 81%
19:00 +8°C° 0.1 mm 4 mps 739 mmHg 86%
20:00 +8°C° 0.1 mm 3 mps 739 mmHg 90%
21:00 +7°C° 0.1 mm 4 mps 739 mmHg 91%
22:00 +7°C° 0.1 mm 5 mps 739 mmHg 92%
23:00 +7°C° 0.1 mm 5 mps 739 mmHg 93%

22 May, Saturday

Time Temperature Precipitation Wind Pressure Humidity
00:00 +7°C° 0.1 mm 5 mps 740 mmHg 93%
01:00 +7°C° 0.1 mm 5 mps 740 mmHg 93%
02:00 +7°C° 0.1 mm 6 mps 741 mmHg 93%
03:00 +7°C° 0.1 mm 6 mps 741 mmHg 92%
04:00 +7°C° 0.1 mm 6 mps 742 mmHg 92%
05:00 +8°C° 0.1 mm 6 mps 742 mmHg 91%
06:00 +8°C° 0 mm 6 mps 743 mmHg 87%
07:00 +8°C° 0 mm 6 mps 743 mmHg 83%
08:00 +9°C° 0 mm 5 mps 744 mmHg 79%
09:00 +10°C° 0 mm 5 mps 744 mmHg 73%
10:00 +10°C° 0 mm 5 mps 744 mmHg 68%
11:00 +12°C° 0 mm 5 mps 745 mmHg 62%
12:00 +13°C° 0 mm 5 mps 745 mmHg 56%
13:00 +14°C° 0 mm 5 mps 745 mmHg 51%
14:00 +15°C° 0 mm 4 mps 746 mmHg 45%
15:00 +15°C° 0 mm 4 mps 746 mmHg 47%
16:00 +15°C° 0 mm 4 mps 746 mmHg 48%
17:00 +16°C° 0 mm 3 mps 746 mmHg 50%
18:00 +13°C° 0 mm 3 mps 747 mmHg 58%
19:00 +11°C° 0 mm 3 mps 747 mmHg 65%
20:00 +9°C° 0 mm 2 mps 748 mmHg 73%
21:00 +8°C° 0 mm 2 mps 748 mmHg 77%
22:00 +7°C° 0 mm 2 mps 748 mmHg 82%
23:00 +7°C° 0 mm 2 mps 749 mmHg 86%
Show more

We Need Your Consent

Meteoprog and our Service Providers may store and access personal data such as cookies, device identifiers or other similar technologies on your device and process such data to personalise content and ads, as well as provide social media features and to analyse the traffic.

  • Store and/or access information on your device

    Cookies, device identifiers or other information can be stored or accessed on your device for the purposes indicated above.

  • Personalised ads and content, ad and content measurement, audience insights, and products development

    Ads and content can be personalised based on a profile. More data can be added to better personalise ads and content. Ad and content performance can be measured. Insights about the audience who saw the ads and content can be derived. Such data can be used to develop or improve user’s experience, systems and software.

By clicking ‘I Agree’ you will allow the use of indicated cookies, device identifiers, web beacons or other similar technologies. Your settings can be changed in the browser on your device.

For certain purposes, legitimate interests may be relied on, rather than consent. You can read more about this in our Privacy and Cookie Policy.